Location: La Tine
(46.4708°N, 7.0525°E)
Time: 10:45:33
(UTC+00:00)

SJ 16-02 - Pass Details

Date: 18 September 2020
Orbit: 606 x 616 km, 75.0° (Epoch: 25 October)

Event Time Altitude Azimuth Distance (km) Brightness Sun altitude
Rises 17:57:09 0° 202° (SSW) 2,852 5.0 -4.3°
Reaches altitude 10° 17:59:22 10° 204° (SSW) 1,952 4.2 -4.7°
Maximum altitude 18:03:44 78° 290° (WNW) 625 1.6 -5.5°
Drops below altitude 10° 18:08:07 10° 18° (NNE) 1,966 3.9 -6.2°
Sets 18:10:22 0° 20° (NNE) 2,875 4.7 -6.6°
